Flag for U.S.A. Weather past 2 weeks in Osage City, Kansas, U.S.A.

Now
78 °F

Sunny.


Feels Like: 77 °F
Forecast: 43 / 77 °F
Wind: N/A

Location: Forbes Field

Current Time: Mar 31, 2015 at 4:17:31 PM

Latest Report: Mar 31, 2015 at 3:53 PM


Visibility: 10 mi

Pressure: 29.91 "Hg

Humidity: 16%

Dew point: 29 °F

Location of Osage CityLocation

Historic Weather in Osage City — Graph

°F

Osage City temperature yesterday

Maximum temperature yesterday: 76 °F (at 3:53 PM)
Minimum temperature yesterday: 33 °F (at 5:53 AM)
Average temperature yesterday: 56 °F

Past Weeks' High & Low Weather Summary

 TemperatureHumidityPressure
High86 °F (Mar 16, 2:53 PM)97% (Mar 25, 8:53 AM)30.37 "Hg (Mar 25, 8:53 AM)
Low30 °F (Mar 20, 6:02 AM)14% (Mar 16, 2:53 PM)29.79 "Hg (Mar 24, 2:53 PM)
Average50 °F60%30.08 "Hg
* Reported Mar 16 2:53 PM — Mar 31 2:53 PM, Osage City, Weather by CustomWeather, © 2015

Note: Actual official high and low records may vary slightly from our data, if they occured in-between our weather recording intervals... More about our weather records

Advertising

Osage City weather history for previous 24 hours

 ConditionsComfort  
Time TempWeatherWind HumidityBarometerVisibility
2:53 PM
Tue, Mar 31
78 °FSunny.9 mph16%29.93 "Hg10 mi
1:53 PM76 °FSunny.12 mph18%29.96 "Hg10 mi
12:53 PM74 °FSunny.7 mph22%29.98 "Hg10 mi
11:53 AM72 °FSunny.14 mph23%30.00 "Hg10 mi
10:53 AM69 °FSunny.10 mph25%30.01 "Hg10 mi
9:53 AM64 °FSunny.13 mph34%30.00 "Hg10 mi
8:53 AM57 °FSunny.5 mph51%29.99 "Hg9 mi
7:53 AM46 °FClear.No wind77%29.97 "Hg6 mi
6:53 AM44 °FClear.5 mph76%29.94 "Hg6 mi
5:53 AM45 °FClear.No wind71%29.92 "Hg5 mi
4:53 AM49 °FClear.3 mph66%29.91 "Hg5 mi
3:53 AM48 °FClear.No wind66%29.90 "Hg5 mi
2:53 AM50 °FClear.No wind61%29.92 "Hg5 mi
1:53 AM51 °FClear.5 mph59%29.93 "Hg5 mi
12:53 AM56 °FClear.8 mph49%29.93 "Hg6 mi
11:53 PM
Mon, Mar 30
56 °FClear.6 mph47%29.93 "Hg6 mi
10:53 PM59 °FClear.10 mph42%29.93 "Hg7 mi
9:53 PM62 °FClear.10 mph37%29.94 "Hg8 mi
8:53 PM61 °FClear.8 mph38%29.95 "Hg10 mi
7:53 PM67 °FSunny.7 mph30%29.94 "Hg10 mi
6:53 PM73 °FSunny.10 mph23%29.94 "Hg10 mi
5:53 PM76 °FSunny.16 mph19%29.95 "Hg10 mi
4:53 PM76 °FSunny.16 mph16%29.96 "Hg10 mi
Weather by CustomWeather, © 2015

See weather overviewHow to use our weather pages